H1 CPF 2 NER 2023 5 11 9 131 01 glonass143 H2 2007501 9143 46805 2023 5 11 0 0 0 2023 5 14 23 45 0 900 1 1 0 0 0 1 H9 10 0 60075 0.00000 0 -10884652.139 -10170040.311 -20691328.251 10 0 60075 900.00000 0 -8253689.365 -10114771.577 -21900586.206 10 0 60075 1800.00000 0 -5503412.179 -10259735.975 -22683946.016 10 0 60075 2700.00000 0 -2702466.620 -10613931.520 -23026229.831 10 0 60075 3600.00000 0 79369.350 -11174088.641 -22920844.136 10 0 60075 4500.00000 0 2773853.525 -11924747.523 -22369903.160 10 0 60075 5400.00000 0 5316877.341 -12838866.499 -21384182.783 10 0 60075 6300.00000 0 7650886.602 -13878935.794 -19982906.178 10 0 60075 7200.00000 0 9727025.215 -14998549.648 -18193365.613 10 0 60075 8100.00000 0 11506913.812 -16144370.630 -16050387.922 10 0 60075 9000.00000 0 12963990.388 -17258403.398 -13595654.104 10 0 60075 9900.00000 0 14084358.529 -18280482.217 -10876886.350 10 0 60075 10800.00000 0 14867109.346 -19150867.454 -7946918.338 10 0 60075 11700.00000 0 15324105.223 -19812841.703 -4862666.930 10 0 60075 12600.00000 0 15479236.121 -20215196.152 -1684025.422 10 0 60075 13500.00000 0 15367181.130 -20314502.362 1527299.998 10 0 60075 14400.00000 0 15031728.767 -20077073.716 4708987.812 10 0 60075 15300.00000 0 14523727.902 -19480533.871 7799309.287 10 0 60075 16200.00000 0 13898756.539 -18514926.047 10738323.616 10 0 60075 17100.00000 0 13214607.302 -17183316.312 13469036.936 10 0 60075 18000.00000 0 12528695.905 -15501865.118 15938502.949 10 0 60075 18900.00000 0 11895501.911 -13499363.630 18098844.160 10 0 60075 19800.00000 0 11364149.379 -11216253.545 19908174.509 10 0 60075 20700.00000 0 10976228.996 -8703170.505 21331406.131 10 0 60075 21600.00000 0 10763952.961 -6019070.821 22340925.305 10 0 60075 22500.00000 0 10748719.943 -3229018.273 22917125.161 10 0 60075 23400.00000 0 10940150.262 -401721.737 23048785.290 10 0 60075 24300.00000 0 11335631.951 2393075.440 22733291.204 10 0 60075 25200.00000 0 11920397.084 5087247.320 21976689.383 10 0 60075 26100.00000 0 12668125.803 7616869.656 20793576.538 10 0 60075 27000.00000 0 13542053.468 9924630.416 19206824.664 10 0 60075 27900.00000 0 14496535.367 11961967.349 17247146.380 10 0 60075 28800.00000 0 15479004.152 13690844.344 14952508.045 10 0 60075 29700.00000 0 16432238.471 15085093.147 12367401.051 10 0 60075 30600.00000 0 17296847.885 16131264.817 9541984.524 10 0 60075 31500.00000 0 18013869.648 16828955.579 6531115.405 10 0 60075 32400.00000 0 18527367.723 17190593.698 3393284.328 10 0 60075 33300.00000 0 18786923.895 17240696.639 189477.849 10 0 60075 34200.00000 0 18749914.999 17014630.153 -3018010.567 10 0 60075 35100.00000 0 18383478.999 16556922.134 -6166797.192 10 0 60075 36000.00000 0 17666085.649 15919203.044 -9195627.910 10 0 60075 36900.00000 0 16588644.096 15157860.702 -12045576.709 10 0 60075 37800.00000 0 15155099.420 14331509.349 -14661198.649 10 0 60075 38700.00000 0 13382491.739 13498380.823 -16991614.118 10 0 60075 39600.00000 0 11300474.359 12713748.874 -18991502.682 10 0 60075 40500.00000 0 8950310.320 12027496.043 -20621986.888 10 0 60075 41400.00000 0 6383388.654 11481926.295 -21851388.754 10 0 60075 42300.00000 0 3659321.939 11109915.924 -22655844.342 10 0 60075 43200.00000 0 843704.105 10933480.718 -23019764.814 10 0 60075 44100.00000 0 -1994378.408 10962819.575 -22936135.449 10 0 60075 45000.00000 0 -4784978.879 11195874.539 -22406647.263 10 0 60075 45900.00000 0 -7459956.876 11618425.357 -21441659.134 10 0 60075 46800.00000 0 -9955568.875 12204714.113 -20059991.520 10 0 60075 47700.00000 0 -12214875.872 12918573.202 -18288556.066 10 0 60075 48600.00000 0 -14189868.697 13715008.732 -16161828.449 10 0 60075 49500.00000 0 -15843223.641 14542172.305 -13721174.785 10 0 60075 50400.00000 0 -17149616.348 15343637.811 -11014044.763 10 0 60075 51300.00000 0 -18096540.457 16060886.988 -8093047.191 10 0 60075 52200.00000 0 -18684598.326 16635898.810 -5014926.048 10 0 60075 53100.00000 0 -18927252.977 17013733.251 -1839457.032 10 0 60075 54000.00000 0 -18850053.134 17145000.240 1371713.783 10 0 60075 54900.00000 0 -18489365.345 16988109.563 4556266.433 10 0 60075 55800.00000 0 -17890667.621 16511206.611 7652415.249 10 0 60075 56700.00000 0 -17106477.405 15693712.229 10600105.210 10 0 60075 57600.00000 0 -16194001.769 14527401.519 13342173.282 10 0 60075 58500.00000 0 -15212609.165 13016975.801 15825452.382 10 0 60075 59400.00000 0 -14221229.259 11180103.183 18001796.952 10 0 60075 60300.00000 0 -13275790.080 9046925.251 19829010.781 10 0 60075 61200.00000 0 -12426799.892 6659049.597 21271659.748 10 0 60075 62100.00000 0 -11717174.924 4068069.095 22301754.406 10 0 60075 63000.00000 0 -11180403.626 1333668.307 22899289.868 10 0 60075 63900.00000 0 -10839124.085 -1478605.581 23052632.997 10 0 60075 64800.00000 0 -10704173.942 -4299816.148 22758749.732 10 0 60075 65700.00000 0 -10774152.583 -7060254.220 22023268.129 10 0 60075 66600.00000 0 -11035514.117 -9692090.155 20860375.619 10 0 60075 67500.00000 0 -11463187.556 -12131953.042 19292551.912 10 0 60075 68400.00000 0 -12021698.722 -14323330.666 17350141.906 10 0 60075 69300.00000 0 -12666747.320 -16218691.146 15070775.947 10 0 60075 70200.00000 0 -13347173.399 -17781238.438 12498647.714 10 0 60075 71100.00000 0 -14007230.902 -18986228.772 9683662.812 10 0 60075 72000.00000 0 -14589072.640 -19821793.180 6680473.916 10 0 60075 72900.00000 0 -15035341.781 -20289231.741 3547420.787 10 0 60075 73800.00000 0 -15291760.017 -20402767.347 345395.583 10 0 60075 74700.00000 0 -15309602.267 -20188769.485 -2863344.180 10 0 60075 75600.00000 0 -15047952.299 -19684481.039 -6016391.473 10 0 60075 76500.00000 0 -14475642.677 -18936302.244 -9052410.028 10 0 60075 77400.00000 0 -13572795.683 -17997704.779 -11912334.403 10 0 60075 78300.00000 0 -12331898.750 -16926864.752 -14540525.685 10 0 60075 79200.00000 0 -10758367.662 -15784115.238 -16885859.553 10 0 60075 80100.00000 0 -8870572.587 -14629326.619 -18902724.969 10 0 60075 81000.00000 0 -6699324.697 -13519325.816 -20551913.702 10 0 60075 81900.00000 0 -4286843.998 -12505463.658 -21801383.333 10 0 60075 82800.00000 0 -1685250.808 -11631433.067 -22626878.996 10 0 60075 83700.00000 0 1045356.686 -10931429.860 -23012402.120 10 0 60075 84600.00000 0 3839159.149 -10428733.247 -22950517.466 10 0 60075 85500.00000 0 6627113.500 -10134765.221 -22442492.985 10 0 60076 0.00000 0 9339587.287 -10048667.702 -21498270.302 10 0 60076 900.00000 0 11909022.397 -10157414.434 -20136266.180 10 0 60076 1800.00000 0 14272514.238 -10436452.177 -18383010.470 10 0 60076 2700.00000 0 16374204.614 -10850843.235 -16272626.047 10 0 60076 3600.00000 0 18167385.848 -11356860.656 -13846162.093 10 0 60076 4500.00000 0 19616230.808 -11903968.121 -11150793.322 10 0 60076 5400.00000 0 20697077.523 -12437100.501 -8238900.838 10 0 60076 6300.00000 0 21399215.898 -12899148.417 -5167052.540 10 0 60076 7200.00000 0 21725144.808 -13233541.518 -1994903.044 10 0 60076 8100.00000 0 21690290.135 -13386821.126 1215965.328 10 0 60076 9000.00000 0 21322196.727 -13311093.292 4403237.840 10 0 60076 9900.00000 0 20659229.395 -12966258.463 7505075.489 10 0 60076 10800.00000 0 19748838.606 -12321923.503 10461312.415 10 0 60076 11700.00000 0 18645464.388 -11358915.075 13214619.462 10 0 60076 12600.00000 0 17408167.075 -10070330.270 15711611.408 10 0 60076 13500.00000 0 16098084.650 -8462079.746 17903876.801 10 0 60076 14400.00000 0 14775823.371 -6552899.813 19748910.965 10 0 60076 15300.00000 0 13498890.868 -4373832.020 21210934.691 10 0 60076 16200.00000 0 12319278.865 -1967190.822 22261583.477 10 0 60076 17100.00000 0 11281296.171 614938.988 22880454.584 10 0 60076 18000.00000 0 10419742.095 3312613.930 23055501.848 10 0 60076 18900.00000 0 9758496.162 6060274.655 22783270.881 10 0 60076 19800.00000 0 9309582.711 8789228.287 22068970.153 10 0 60076 20700.00000 0 9072749.302 11430268.626 20926376.290 10 0 60076 21600.00000 0 9035576.501 13916326.683 19377574.898 10 0 60076 22500.00000 0 9174114.544 16185042.503 17452541.092 10 0 60076 23400.00000 0 9454020.397 18181152.054 15188566.961 10 0 60076 24300.00000 0 9832147.688 19858590.311 12629546.097 10 0 60076 25200.00000 0 10258522.834 21182223.091 9825128.107 10 0 60076 26100.00000 0 10678624.173 22129135.286 6829758.881 10 0 60076 27000.00000 0 11035867.824 22689421.522 3701624.756 10 0 60076 27900.00000 0 11274194.850 22866445.974 501520.971 10 0 60076 28800.00000 0 11340649.695 22676560.340 -2708333.354 10 0 60076 29700.00000 0 11187839.846 22148291.893 -5865510.208 10 0 60076 30600.00000 0 10776171.507 21321035.999 -8908593.290 10 0 60076 31500.00000 0 10075765.359 20243308.568 -11778379.626 10 0 60076 32400.00000 0 9067970.030 18970632.618 -14419037.958 10 0 60076 33300.00000 0 7746407.907 17563148.643 -16779200.649 10 0 60076 34200.00000 0 6117507.853 16083050.137 -18812967.201 10 0 60076 35100.00000 0 4200501.138 14591952.843 -20480799.560 10 0 60076 36000.00000 0 2026879.624 13148308.875 -21750291.660 10 0 60076 36900.00000 0 -360661.992 11804974.685 -22596798.354 10 0 60076 37800.00000 0 -2909756.431 10607035.027 -23003911.825 10 0 60076 38700.00000 0 -5560303.324 9589973.971 -22963776.640 10 0 60076 39600.00000 0 -8246737.567 8778269.165 -22477237.774 10 0 60076 40500.00000 0 -10900532.535 8184467.495 -21553819.211 10 0 60076 41400.00000 0 -13452834.431 7808779.965 -20211533.874 10 0 60076 42300.00000 0 -15837118.541 7639211.662 -18476528.878 10 0 60076 43200.00000 0 -17991757.394 7652220.232 -16382573.185 10 0 60076 44100.00000 0 -19862394.453 7813874.007 -13970397.668 10 0 60076 45000.00000 0 -21404025.041 8081460.018 -11286900.503 10 0 60076 45900.00000 0 -22582698.514 8405473.169 -8384233.368 10 0 60076 46800.00000 0 -23376771.451 8731901.902 -5318786.252 10 0 60076 47700.00000 0 -23777660.382 9004713.215 -2150090.788 10 0 60076 48600.00000 0 -23790063.543 9168431.504 1060336.461 10 0 60076 49500.00000 0 -23431643.390 9170701.890 4250188.114 10 0 60076 50400.00000 0 -22732184.223 8964729.365 7357574.048 10 0 60076 51300.00000 0 -21732261.151 8511490.453 10322219.916 10 0 60076 52200.00000 0 -20481476.997 7781623.746 13086632.875 10 0 60076 53100.00000 0 -19036341.654 6756919.266 15597212.041 10 0 60076 54000.00000 0 -17457883.073 5431343.407 17805282.512 10 0 60076 54900.00000 0 -15809090.025 3811555.751 19668033.467 10 0 60076 55800.00000 0 -14152293.490 1916895.185 21149342.730 10 0 60076 56700.00000 0 -12546595.785 -221165.208 22220472.575 10 0 60076 57600.00000 0 -11045454.220 -2560073.041 22860623.904 10 0 60076 58500.00000 0 -9694519.596 -5047718.771 23057338.623 10 0 60076 59400.00000 0 -8529819.015 -7624363.313 22806742.717 10 0 60076 60300.00000 0 -7576358.255 -10224892.572 22113625.360 10 0 60076 61200.00000 0 -6847201.515 -12781306.663 20991352.265 10 0 60076 62100.00000 0 -6343066.605 -15225341.757 19461614.426 10 0 60076 63000.00000 0 -6052452.254 -17491116.687 17554016.296 10 0 60076 63900.00000 0 -5952292.102 -19517694.997 15305510.491 10 0 60076 64800.00000 0 -6009107.890 -21251456.272 12759688.975 10 0 60076 65700.00000 0 -6180613.359 -22648178.016 9965943.565 10 0 60076 66600.00000 0 -6417701.256 -23674741.058 6978511.339 10 0 60076 67500.00000 0 -6666729.413 -24310386.876 3855423.010 10 0 60076 68400.00000 0 -6872008.966 -24547473.780 657374.547 10 0 60076 69300.00000 0 -6978388.845 -24391699.872 -2553455.812 10 0 60076 70200.00000 0 -6933826.293 -23861783.146 -5714621.679 10 0 60076 71100.00000 0 -6691833.511 -22988612.087 -8764629.452 10 0 60076 72000.00000 0 -6213695.592 -21813902.589 -11644141.440 10 0 60076 72900.00000 0 -5470364.537 -20388418.032 -14297136.921 10 0 60076 73800.00000 0 -4443947.880 -18769827.838 -16672007.791 10 0 60076 74700.00000 0 -3128727.697 -17020295.146 -18722566.845 10 0 60076 75600.00000 0 -1531665.749 -15203895.552 -20408948.736 10 0 60076 76500.00000 0 327627.681 -13383975.749 -21698385.973 10 0 60076 77400.00000 0 2417461.004 -11620563.226 -22565844.957 10 0 60076 78300.00000 0 4695141.686 -9967935.653 -22994510.013 10 0 60076 79200.00000 0 7108525.345 -8472451.518 -22976106.425 10 0 60076 80100.00000 0 9597969.477 -7170732.352 -22511056.656 10 0 60076 81000.00000 0 12098610.820 -6088271.786 -21608467.165 10 0 60076 81900.00000 0 14542871.894 -5238528.608 -20285946.453 10 0 60076 82800.00000 0 16863092.653 -4622540.564 -18569258.148 10 0 60076 83700.00000 0 18994177.999 -4229073.699 -16491816.045 10 0 60076 84600.00000 0 20876151.197 -4035299.556 -14094031.018 10 0 60076 85500.00000 0 22456507.162 -4007970.368 -11422522.545 10 0 60077 0.00000 0 23692267.838 -4105041.504 -8529210.529 10 0 60077 900.00000 0 24551654.906 -4277671.704 -5470303.495 10 0 60077 1800.00000 0 25015309.069 -4472515.610 -2305206.950 10 0 60077 2700.00000 0 25077007.666 -4634211.170 904631.940 10 0 60077 3600.00000 0 24743849.663 -4707956.091 4096916.887 10 0 60077 4500.00000 0 24035901.768 -4642063.991 7209710.373 10 0 60077 5400.00000 0 22985321.126 -4390391.919 10182633.120 10 0 60077 6300.00000 0 21634991.971 -3914536.381 12958031.865 10 0 60077 7200.00000 0 20036733.802 -3185704.919 15482092.952 10 0 60077 8100.00000 0 18249156.401 -2186183.957 17705880.498 10 0 60077 9000.00000 0 16335251.450 -910340.634 19586279.527 10 0 60077 9900.00000 0 14359821.213 634884.195 21086826.401 10 0 60077 10800.00000 0 12386851.228 2430013.392 22178411.166 10 0 60077 11700.00000 0 10476935.972 4443601.065 22839838.863 10 0 60077 12600.00000 0 8684864.081 6633307.819 23058239.455 10 0 60077 13500.00000 0 7057462.942 8947440.482 22829318.773 10 0 60077 14400.00000 0 5631791.608 11326893.731 22157445.676 10 0 60077 15300.00000 0 4433756.635 13707414.380 21055573.478 10 0 60077 16200.00000 0 3477207.923 16022095.549 19544996.655 10 0 60077 17100.00000 0 2763551.777 18203998.130 17654946.745 10 0 60077 18000.00000 0 2281897.010 20188791.278 15422034.347 10 0 60077 18900.00000 0 2009727.683 21917302.442 12889547.056 10 0 60077 19800.00000 0 1914073.987 23337870.731 10106616.010 10 0 60077 20700.00000 0 1953131.812 24408405.117 7127266.510 10 0 60077 21600.00000 0 2078262.428 25098060.988 4009370.666 10 0 60077 22500.00000 0 2236287.439 25388464.220 813522.225 10 0 60077 23400.00000 0 2371981.353 25274430.775 -2398144.301 10 0 60077 24300.00000 0 2430655.510 24764151.052 -5563166.827 10 0 60077 25200.00000 0 2360722.927 23878830.779 -8619976.888 10 0 60077 26100.00000 0 2116134.288 22651803.306 -11509104.228 10 0 60077 27000.00000 0 1658580.670 21127150.586 -14174340.482 10 0 60077 27900.00000 0 959368.467 19357890.989 -16563838.575 10 0 60077 28800.00000 0 885.979 17403810.394 -18631125.760 10 0 60077 29700.00000 0 -1222401.518 15329028.017 -20336010.282 10 0 60077 30600.00000 0 -2703471.304 13199399.431 -21645363.841 10 0 60077 31500.00000 0 -4422798.595 11079865.852 -22533764.763 10 0 60077 32400.00000 0 -6348946.354 9031860.749 -22983989.657 10 0 60077 33300.00000 0 -8439665.591 7110882.004 -22987344.411 10 0 60077 34200.00000 0 -10643460.729 5364330.697 -22543828.577 10 0 60077 35100.00000 0 -12901555.140 3829706.000 -21662130.379 10 0 60077 36000.00000 0 -15150175.229 2533230.564 -20359452.853 10 0 60077 36900.00000 0 -17323058.056 1488962.581 -18661174.759 10 0 60077 37800.00000 0 -19354078.189 698430.185 -16600353.061 10 0 60077 38700.00000 0 -21179884.449 150801.903 -14217076.724 10 0 60077 39600.00000 0 -22742436.694 -176415.580 -11557684.465 10 0 60077 40500.00000 0 -23991336.925 -316183.244 -8673861.695 10 0 60077 41400.00000 0 -24885857.719 -310290.857 -5621634.290 10 0 60077 42300.00000 0 -25396583.364 -207343.695 -2460278.882 10 0 60077 43200.00000 0 -25506595.375 -60460.880 748829.030 10 0 60077 44100.00000 0 -25212153.315 75216.584 3943406.543 10 0 60077 45000.00000 0 -24522842.829 145102.159 7061471.056 10 0 60077 45900.00000 0 -23461185.221 97715.139 10042540.678 10 0 60077 46800.00000 0 -22061725.366 -112901.061 12828804.031 10 0 60077 47700.00000 0 -20369636.430 -524996.069 15366236.933 10 0 60077 48600.00000 0 -18438899.985 -1167257.502 17605644.612 10 0 60077 49500.00000 0 -16330137.473 -2057362.189 19503609.813 10 0 60077 50400.00000 0 -14108183.383 -3200995.082 21023329.018 10 0 60077 51300.00000 0 -11839500.817 -4591377.775 22135321.265 10 0 60077 52200.00000 0 -9589546.434 -6209327.335 22817996.556 10 0 60077 53100.00000 0 -7420193.690 -8023844.164 23058073.327 10 0 60077 54000.00000 0 -5387320.608 -9993205.721 22850837.276 10 0 60077 54900.00000 0 -3538661.493 -12066521.999 22200236.595 10 0 60077 55800.00000 0 -1912011.095 -14185689.395 21118811.511 10 0 60077 56700.00000 0 -533855.155 -16287663.040 19627459.001 10 0 60077 57600.00000 0 581516.297 -18306954.155 17755036.423 10 0 60077 58500.00000 0 1432376.396 -20178249.268 15537810.853 10 0 60077 59400.00000 0 2029394.790 -21839042.652 13018763.786 10 0 60077 60300.00000 0 2394944.234 -23232172.293 10246763.755 10 0 60077 61200.00000 0 2561909.900 -24308153.185 7275622.205 10 0 60077 62100.00000 0 2572051.937 -25027209.818 4163050.428 10 0 60077 63000.00000 0 2473990.806 -25360921.944 969537.661 10 0 60077 63900.00000 0 2320901.083 -25293413.716 -2242827.663 10 0 60077 64800.00000 0 2168012.084 -24822035.379 -5411570.161 10 0 60077 65700.00000 0 2070022.019 -23957508.095 -8475048.945 10 0 60077 66600.00000 0 2078536.275 -22723525.177 -11373663.651 10 0 60077 67500.00000 0 2239639.491 -21155826.106 -14051020.736 10 0 60077 68400.00000 0 2591705.422 -19300782.063 -16455036.552 10 0 60077 69300.00000 0 3163538.428 -17213552.385 -18538955.107 10 0 60077 70200.00000 0 3972926.277 -14955889.448 -20262260.321 10 0 60077 71100.00000 0 5025666.353 -12593684.160 -21591464.895 10 0 60077 72000.00000 0 6315107.262 -10194354.980 -22500760.545 10 0 60077 72900.00000 0 7822225.899 -7824189.687 -22972517.232 10 0 60077 73800.00000 0 9516237.469 -5545750.743 -22997622.112 10 0 60077 74700.00000 0 11355713.434 -3415452.191 -22575652.081 10 0 60077 75600.00000 0 13290161.035 -1481408.462 -21714877.002 10 0 60077 76500.00000 0 15261998.704 218356.127 -20432093.943 10 0 60077 77400.00000 0 17208845.012 1657263.677 -18752295.940 10 0 60077 78300.00000 0 19066025.700 2821049.625 -16708181.896 10 0 60077 79200.00000 0 20769194.166 3708105.660 -14339517.257 10 0 60077 80100.00000 0 22256955.921 4329285.963 -11692357.963 10 0 60077 81000.00000 0 23473387.355 4707186.639 -8818152.802 10 0 60077 81900.00000 0 24370343.525 4874930.268 -5772741.700 10 0 60077 82800.00000 0 24909458.430 4874508.229 -2615269.547 10 0 60077 83700.00000 0 25063754.162 4754751.997 592963.131 10 0 60077 84600.00000 0 24818791.643 4569020.047 3789690.239 10 0 60077 85500.00000 0 24173314.930 4372698.934 6912887.515 10 0 60078 0.00000 0 23139362.602 4220624.730 9901973.486 10 0 60078 900.00000 0 21741840.986 4164534.042 12698982.273 10 0 60078 1800.00000 0 20017578.730 4250652.707 15249681.659 10 0 60078 2700.00000 0 18013900.428 4517523.777 17504620.412 10 0 60078 3600.00000 0 15786779.971 4994166.744 19420081.045 10 0 60078 4500.00000 0 13398649.865 5698645.632 20958921.787 10 0 60078 5400.00000 0 10915957.282 6637106.583 22091291.888 10 0 60078 6300.00000 0 8406567.821 7803325.945 22795207.066 10 0 60078 7200.00000 0 5937124.050 9178788.677 23056974.512 10 0 60078 8100.00000 0 3570467.574 10733294.892 22871459.575 10 0 60078 9000.00000 0 1363230.683 12426070.487 22242189.042 10 0 60078 9900.00000 0 -636303.368 14207336.862 21181288.803 10 0 60078 10800.00000 0 -2389983.415 16020275.592 19709256.583 10 0 60078 11700.00000 0 -3871143.412 17803307.319 17854573.379 10 0 60078 12600.00000 0 -5065469.708 19492590.733 15653160.189 10 0 60078 13500.00000 0 -5971346.918 21024637.951 13147689.572 10 0 60078 14400.00000 0 -6599668.404 22338937.256 10386764.440 10 0 60078 15300.00000 0 -6973119.722 23380473.301 7423979.250 10 0 60078 16200.00000 0 -7124965.572 24102038.730 4316881.321 10 0 60078 17100.00000 0 -7097391.854 24466239.440 1125852.249 10 0 60078 18000.00000 0 -6939473.353 24447108.301 -2087068.661 10 0 60078 18900.00000 0 -6704853.693 24031258.430 -5259395.620 10 0 60078 19800.00000 0 -6449236.556 23218526.474 -8329417.997 10 0 60078 20700.00000 0 -6227795.387 22022077.874 -11237407.738 10 0 60078 21600.00000 0 -6092612.327 20467968.956 -13926788.205 10 0 60078 22500.00000 0 -6090255.914 18594183.670 -16345240.928 10 0 60078 23400.00000 0 -6259601.125 16449185.120 -18445728.041 10 0 60078 24300.00000 0 -6629984.934 14090042.468 -20187410.166 10 0 60078 25200.00000 0 -7219776.178 11580211.643 -21536441.696 10 0 60078 26100.00000 0 -8035420.831 8987062.706 -22466628.101 10 0 60078 27000.00000 0 -9071003.528 6379257.158 -22959932.743 10 0 60078 27900.00000 0 -10308344.325 3824084.441 -23006823.777 10 0 60078 28800.00000 0 -11717627.031 1384868.398 -22606454.832 10 0 60078 29700.00000 0 -13258533.047 -881448.854 -21766676.436 10 0 60078 30600.00000 0 -14881833.451 -2926445.806 -20503878.361 10 0 60078 31500.00000 0 -16531372.747 -4711995.135 -18842666.232 10 0 60078 32400.00000 0 -18146361.297 -6211599.379 -16815378.895 10 0 60078 33300.00000 0 -19663880.497 -7411234.489 -14461456.035 10 0 60078 34200.00000 0 -21021495.702 -8309667.618 -11826668.386 10 0 60078 35100.00000 0 -22159867.437 -8918237.669 -8962225.577 10 0 60078 36000.00000 0 -23025251.385 -9260109.495 -5923779.008 10 0 60078 36900.00000 0 -23571782.248 -9369034.768 -2770339.286 10 0 60078 37800.00000 0 -23763445.653 -9287673.135 436870.595 10 0 60078 38700.00000 0 -23575655.299 -9065545.699 3635603.859 10 0 60078 39600.00000 0 -22996369.264 -8756708.227 6763797.036 10 0 60078 40500.00000 0 -22026698.617 -8417243.052 9760771.993 10 0 60078 41400.00000 0 -20680982.847 -8102676.072 12568409.585 10 0 60078 42300.00000 0 -18986328.860 -7865428.159 15132272.268 10 0 60078 43200.00000 0 -16981632.621 -7752408.608 17402654.291 10 0 60078 44100.00000 0 -14716123.964 -7802852.098 19335539.592 10 0 60078 45000.00000 0 -12247494.821 -8046490.268 20893449.464 10 0 60078 45900.00000 0 -9639688.109 -8502134.886 22046164.274 10 0 60078 46800.00000 0 -6960438.389 -9176732.418 22771305.959 10 0 60078 47700.00000 0 -4278665.534 -10064930.109 23054770.545 10 0 60078 48600.00000 0 -1661828.472 -11149172.512 22891002.720 10 0 60078 49500.00000 0 826652.297 -12400325.381 22283107.212 10 0 60078 50400.00000 0 3129797.508 -13778801.964 21242794.608 10 0 60078 51300.00000 0 5199198.539 -15236145.805 19790162.155 10 0 60078 52200.00000 0 6996785.799 -16717005.083 17953313.018 10 0 60078 53100.00000 0 8496163.211 -18161416.900 15767820.424 10 0 60078 54000.00000 0 9683453.762 -19507306.732 13276046.092 10 0 60078 54900.00000 0 10557621.272 -20693098.758 10526325.190 10 0 60078 55800.00000 0 11130255.314 -21660327.661 7572032.874 10 0 60078 56700.00000 0 11424828.710 -22356141.915 4470550.016 10 0 60078 57600.00000 0 11475459.292 -22735592.695 1282147.990 10 0 60078 58500.00000 0 11325228.617 -22763611.127 -1931185.664 10 0 60078 59400.00000 0 11024129.281 -22416589.519 -5106957.389 10 0 60078 60300.00000 0 10626728.368 -21683498.766 -8183389.407 10 0 60078 61200.00000 0 10189646.773 -20566493.655 -11100628.476 10 0 60078 62100.00000 0 9768962.073 -19080979.560 -13801917.253 10 0 60078 63000.00000 0 9417645.844 -17255136.767 -16234704.665 10 0 60078 63900.00000 0 9183144.843 -15128921.771 -18351673.002 10 0 60078 64800.00000 0 9105209.187 -12752586.957 -20111661.346 10 0 60078 65700.00000 0 9214060.038 -10184780.330 -21480467.221 10 0 60078 66600.00000 0 9528974.696 -7490304.626 -22431510.921 10 0 60078 67500.00000 0 10057349.208 -4737629.179 -22946349.877 10 0 60078 68400.00000 0 10794278.217 -1996258.138 -23015033.492 10 0 60078 69300.00000 0 11722669.937 665935.648 -22636291.974 10 0 60078 70200.00000 0 12813891.455 3185300.543 -21817555.988 10 0 60078 71100.00000 0 14028917.322 5504812.759 -20574807.125 10 0 60078 72000.00000 0 15319933.114 7576200.417 -18932262.389 10 0 60078 72900.00000 0 16632326.657 9361697.744 -16921899.054 10 0 60078 73800.00000 0 17906983.180 10835357.602 -14582829.207 10 0 60078 74700.00000 0 19082787.970 11983869.102 -11960536.242 10 0 60078 75600.00000 0 20099231.309 12806847.775 -9105988.204 10 0 60078 76500.00000 0 20899006.090 13316587.821 -6074645.260 10 0 60078 77400.00000 0 21430488.906 13537288.575 -2925380.792 10 0 60078 78300.00000 0 21650000.116 13503789.214 280662.806 10 0 60078 79200.00000 0 21523747.740 13259866.361 3481261.208 10 0 60078 80100.00000 0 21029373.452 12856167.579 6614314.843 10 0 60078 81000.00000 0 20157035.539 12347868.759 9619051.620 10 0 60078 81900.00000 0 18909983.227 11792154.873 12437202.404 10 0 60078 82800.00000 0 17304598.002 11245630.683 15014126.543 10 0 60078 83700.00000 0 15369899.833 10761770.704 17299865.956 10 0 60078 84600.00000 0 13146538.444 10388515.830 19250107.880 10 0 60078 85500.00000 0 10685311.060 10166117.619 20827038.209 99